Tracking 18942 objects as of 17-Jan-2018
HD Live streaming from Space Station
objects crossing your sky now

COSMOS 1947 (GLONASS)

Track COSMOS 1947 (GLONASS) now!
COSMOS 1947 (GLONASS) is classified as:


NORAD ID: 19164
Int'l Code: 1988-043B
Perigee: 19,087.4 km
Apogee: 19,186.4 km
Inclination: 64.2 °
Period: 675.7 minutes
Semi major axis: 25507 km
RCS: 1.5563 m2 (large)
Launch date: May 21, 1988
Source: Commonwealth of Independent States (former USSR) (CIS)
Launch site: TYURATAM MISSILE AND SPACE COMPLEX (TTMTR)
SV:
aabbcc
Your satellite tracking list
Your tracking list is empty




NASA's NSSDC Master Catalog

Two Line Element Set (TLE):
1 19164U 88043B   18016.43935566  .00000049  00000-0  00000+0 0  9993
2 19164  64.1926 178.7988 0019393 210.2637  56.0758  2.13103842225863
Source of the keplerian elements: AFSPC